STARLINK-2033 (47650 NORAD) Tracking and Keplerian Element Data

This shows tracking and keplerian element data for the satellite.

Feedback or suggestion? Click here.




ElementValue
Catalog47650
NameSTARLINK-2033
Epoch Orbit945
Epoch Day102.25003472
Epoch Year2021
RAAN187.2894
Inclination53.0474
Eccentricity0.0001722
Argument of Perigee36.6453
Mean Anonmoly116.165
Mean Motion15.73195867
Decay Rate0.00034541
L11 47650U 21012AG 21102.25003472 .00034541 00000-0 24951-3 0 9998
L22 47650 53.0474 187.2894 0001722 36.6453 116.1650 15.73195867 9455

Live tracking and technical data element details for STARLINK-2033 (NORAD 47650). STARLINK-2033 can be tracked NOW for your location showing map with azimuth and elevation plus other details from your city location.

Track the satellite on the map from your city or location and see movement details for azimuth, elevation, latitude, longitude, range, height, and movement on the map or in text.







IsCatalogInMostPopularTable: catalog: 47650, numindb: 16
Update: records affected: 1



GetName: 47650 STARLINK-2033

Hit Count: updated at: Tue, 13 Apr 2021 05:11:10 GMT